Regional Weather Roundup
Issued by NWS

Home | Current Version | Previous Version | Text Only | Print | Product List | Glossary On
Versions: 1 2 3 4 5 6 7 8 9 10 11 12 13 14 15 16 17 18 19 20 21 22 23 24 25 26 27 28 29 30 31 32 33 34 35 36 37 38 39 40 41 42 43 44 45 46 47 48 49 50
000
ASUS43 KMKX 272321
RWRWI

WISCONSIN REGIONAL WEATHER ROUNDUP
NATIONAL WEATHER SERVICE MILWAUKEE/SULLIVAN WI
600 PM CDT TUE JUN 27 2017

NOTE: "FAIR" INDICATES FEW OR NO CLOUDS BELOW 12,000 FEET WITH NO
SIGNIFICANT WEATHER AND/OR OBSTRUCTIONS TO VISIBILITY.

WIZ001-002-006>008-014>016-023>028-280000-
NORTHWEST WISCONSIN

CITY           SKY/WX    TMP DP  RH WIND       PRES   REMARKS
SUPERIOR ARPT  NOT AVBL
ASHLAND        SUNNY     73  48  41 SW14      29.87F
HAYWARD        CLOUDY    73  45  36 SW9       29.90F
SIREN          SUNNY     73  42  32 S13G20    29.88F
CUMBERLAND     SUNNY     70  41  35 S15       29.91F
RICE LAKE      SUNNY     74  44  33 S12       29.92F
CHETEK         SUNNY     73  47  39 SW10G17   29.92F
LADYSMITH      SUNNY     73  47  40 S13       29.94F
EAU CLAIRE     SUNNY     75  43  31 SW14      29.92F
MENOMONIE      MOSUNNY   73  45  36 S9G18     29.91F
NEW RICHMOND   PTSUNNY   73  41  30 S13G21    29.89F
OSCEOLA        CLOUDY    74  42  31 S9        29.91F
$$

WIZ003>005-009-010-017-018-280000-
NORTH CENTRAL WISCONSIN

CITY           SKY/WX    TMP DP  RH WIND       PRES   REMARKS
MANITOWISH WTR SUNNY     70  47  43 SW12G18   29.93F
ARBOR VITAE    SUNNY     72  47  41 SW13G18   29.93F
WOODRUFF       SUNNY     72  47  41 SW13G18   29.93F
RHINELANDER    MOSUNNY   70  47  43 SW10      29.96F
EAGLE RIVER    MOSUNNY   71  44  37 SW12G17   29.94F
LAND O LAKES   MOSUNNY   72  42  34 W9G17     29.94F
PHILLIPS       SUNNY     70  47  44 SW15      29.93F
TOMAHAWK       NOT AVBL
MEDFORD        SUNNY     70  46  41 S13G18    29.95F
MERRILL        PTSUNNY   72  48  43 SW10      29.96F
$$

WIZ029-030-035-036-043>047-280000-
CENTRAL WISCONSIN

CITY           SKY/WX    TMP DP  RH WIND       PRES   REMARKS
WAUSAU           N/A    N/A N/A N/A MISG      29.95F
MOSINEE        PTSUNNY   72  46  40 SW14      29.99F
MARSHFIELD     SUNNY     71  46  40 SW9       29.95F
STEVENS POINT  MOSUNNY   71  46  39 SW9       29.98F
WAUPACA        SUNNY     75  45  34 SW8       29.97F
WAUTOMA        MOSUNNY   74  48  39 SW12      29.98F
WISC RAPIDS    SUNNY     74  47  38 S7G17     29.98F
CAMP DOUGLAS   PTSUNNY   73  48  40 S10       29.97F
$$

WIZ011>013-019>022-031-037>040-048>050-280000-
NORTHEAST WISCONSIN

CITY           SKY/WX    TMP DP  RH WIND       PRES   REMARKS
ANTIGO         MOSUNNY   68  48  47 W12G18    29.98F
SHAWANO        SUNNY     75  45  33 SW10      29.95F
OCONTO         MOSUNNY   74  49  40 W8        29.94F
STURGEON BAY     N/A     70  54  56 S10       29.96F
GREEN BAY      SUNNY     75  49  39 W10       29.97F
MANITOWOC      SUNNY     74  45  35 SW14      29.98F
APPLETON       NOT AVBL
CLINTONVILLE   MOSUNNY   73  43  33 W9        29.96F
OSHKOSH        MOSUNNY   74  47  38 W9        29.98F
$$

WIZ032>034-041-042-053>061-280000-
SOUTHWEST WISCONSIN

CITY           SKY/WX    TMP DP  RH WIND       PRES   REMARKS
LA CROSSE      MOSUNNY   78  46  32 S12       29.95F
SPARTA         SUNNY     73  47  39 S7        29.98F
VIROQUA        MOSUNNY   71  47  42 SW10      30.00F
BOSCOBEL       MOSUNNY   75  47  36 S8        29.99F
PRAIRIE DU CHI MOSUNNY   75  42  30 S7        29.98F
PLATTEVILLE    CLOUDY    74  48  39 S10       30.02F
$$

WIZ056-057-062-063-064-067-068-280000-
SOUTH CENTRAL WISCONSIN

CITY           SKY/WX    TMP DP  RH WIND       PRES   REMARKS
REEDSBURG      SUNNY     73  48  42 S7        29.98F
BARABOO/DELLS  SUNNY     73  46  37 SW9       30.00F
LONE ROCK      SUNNY     75  44  33 SW8       29.99F
MINERAL POINT  SUNNY     72  45  37 S5        30.02F
MADISON        PTSUNNY   74  47  38 SW8       30.00F
MIDDLETON      SUNNY     75  45  34 SW12      30.01F
WATERTOWN      NOT AVBL
MONROE         SUNNY     72  41  33 S8        30.03F
JANESVILLE     MOSUNNY   75  43  31 SW7       30.01F
$$

WIZ051-052-058>065-066-070>072-280000-
SOUTHEAST WISCONSIN

CITY           SKY/WX    TMP DP  RH WIND       PRES   REMARKS
MILWAUKEE      PTSUNNY   75  46  35 W13       30.01F
WAUKESHA       MOSUNNY   72  45  37 W8        30.03F
MILWAUKEE/TIMM MOSUNNY   73  39  29 W8        30.02F
RACINE         MOSUNNY   67  51  56 S10       30.04F
KENOSHA        MOSUNNY   74  46  36 SW7       30.02F
FOND DU LAC    MOSUNNY   74  45  35 SW8       29.99F
SHEBOYGAN      MOSUNNY   73  49  42 W7        29.99F
WEST BEND      MOSUNNY   72  45  37 SW8       30.01F
JUNEAU         MOSUNNY   72  46  40 SW9       30.02F
$$

LSZ147-162-280000-
LAKE SUPERIOR

STATION/POSITION TIME  TEMP    WIND        PRES    WAVE
                       AIR SEA DIR/SP/G            HT/PER
                 (UTC) (F)     (DEG/KT/KT) (MB)    (FT/S)
W MID LAKE BUOY  2250   57 39  230/  8/  8 1011.7F   1
DEVILS ISLAND    2300   70     220/  4/  5 1010.8F
SAXON HARBOR     2240   75     210/  8/ 12 1011.5F
$$

LMZ867-665-643>646-280000-
LAKE MICHIGAN

STATION/POSITION TIME  TEMP    WIND        PRES    WAVE
                       AIR SEA DIR/SP/G            HT/PER
                 (UTC) (F)     (DEG/KT/KT) (MB)    (FT/S)
CHAMBERS ISLAND  2230   70     140/  5/ 13 1013.9F
S GREEN BAY BUOY 2300   70     220/ 10/ 10 1013.9
N MID LAKE BUOY  2250   58 56  190/ 12/ 14 1015.4F   1/ 3
NORTHPORT PIER   2240   66     160/  7/ 13 1014.6F
KEWAUNEE LAKESHO 2254   55     170/ 11/ 14 1014.5F
SHEBOYGAN LAKESH 2300   63     180/ 19/ 20 1015.4F
PORT WASHINGTON  2230   62     180/  9/ 13 1016.9F
ATWATER BUOY     2209   62 57  160/ 14/ 17 1016.7F
MILWAUKEE LAKESH 2300   64     130/  9/ 11   N/A
S MID LAKE BUOY  2250   63 62  180/ 12/ 12 1017.3F   1
KENOSHA   LAKESH 2300   65     170/ 16/ 17 1016.3
$$

TC  - TEMPERATURE IN CELSIUS
VSB - VISIBILITY IN STATUTE MILES
WCI - WIND CHILL INDEX
HX  - HEAT INDEX





USA.gov is the U.S. government's official web portal to all federal, state and local government web resources and services.